Regional Weather Roundup
Issued by NWS Charleston, SC

Current Version | Previous Version | Graphics & Text | Print | Product List | Glossary Off
Versions: 1 2 3 4 5 6 7 8 9 10 11 12 13 14 15 16 17 18 19 20 21 22 23 24 25 26 27 28 29 30 31 32 33 34 35 36 37 38 39 40 41 42 43 44 45 46 47 48 49 50

000
ASUS42 KCHS 201012
RWRCHS

REGIONAL WEATHER ROUNDUP
NATIONAL WEATHER SERVICE CHARLESTON SC
500 AM EST MON NOV 20 2017

NOTE: "FAIR" INDICATES FEW OR NO CLOUDS BELOW 12,000 FEET WITH NO
SIGNIFICANT WEATHER AND/OR OBSTRUCTIONS TO VISIBILITY.

NOT ALL STATIONS ARE QUALITY CONTROLLED. USE DATA WITH CAUTION...
ESPECIALLY DEWPOINT OBSERVATIONS.

SCZ027-030-031-034>040-042>050-201100-
...SOUTHEAST SOUTH CAROLINA...

CITY           SKY/WX    TMP DP  RH WIND       PRES   REMARKS
N CHARLESTON   CLEAR     38  32  79 N5        30.19R WCI  34
WATERFRONT PRK NOT AVBL
JOHNS ISLAND   FAIR      43  34  70 N6        30.18R
PINOPOLIS        N/A     46  36  66 NE8       30.10R
MONCKS CORNER  FAIR      34  32  93 CALM      30.19R
SUMMERVILLE    FAIR      34  32  93 CALM      30.20R
BEAUFORT MCAS  NOT AVBL
BEAUFORT ARPT  FAIR      41  36  81 N7        30.17R
HILTON HEAD IS NOT AVBL
WALTERBORO     SUNNY     32  32 100 CALM      30.20R
ALLENDALE      FAIR      34  32  93 CALM      30.19R

...SOUTHERN MIDLANDS AND PEE DEE...

CITY           SKY/WX    TMP DP  RH WIND       PRES   REMARKS
GEORGETOWN     FAIR      34  32  93 CALM      30.20R
KINGSTREE      FAIR      30  28  93 CALM      30.19R
ORANGEBURG     CLEAR     34  33  96 CALM      30.19R
BARNWELL         N/A     30  28  93 CALM      30.19R
AIKEN          FAIR      30  27  86 CALM      30.21R
MANNING        FAIR      32  27  80 MISG      30.19R
COLUMBIA       CLEAR     32  30  92 CALM      30.19R
SUMTER         CLEAR     33  28  79 CALM      30.15S
FLORENCE       CLEAR     32  29  88 CALM      30.19R
MYRTLE BEACH   CLEAR     37  32  82 NW5       30.19R WCI  33
N MYRTLE BEACH CLEAR     35  31  85 N5        30.17R WCI  31

$$

GAZ063-065-086>088-099>101-113>116-118-119-134>141-150-201100-
...SOUTHEAST GEORGIA...

CITY           SKY/WX    TMP DP  RH WIND       PRES   REMARKS
SAVANNAH ARPT  PTCLDY    38  34  85 N5        30.17S WCI  34
HUNTER AAF     CLEAR     42  34  73 CALM      30.13S
FORT STEWART   PTCLDY    39  31  74 CALM      30.15R
STATESBORO     PTCLDY    32  31  96 N3        30.18R
SYLVANIA       MOSUNNY   34  33  98 CALM      30.19R
CLAXTON        FAIR      33  33  98 CALM      30.17S

...CSRA...CENTRAL AND FAR SOUTHEAST GEORGIA...

CITY           SKY/WX    TMP DP  RH WIND       PRES   REMARKS
THOMSON        CLEAR     29  27  95 CALM      30.24R
AUGUSTA-BUSH   CLEAR     30  28  92 CALM      30.19R
AUGUSTA-DANIEL CLEAR     39  31  72 CALM      30.19R
SWAINSBORO     FAIR      32  32 100 CALM      30.19R
VIDALIA        PTCLDY    36  34  93 N5        30.17S WCI  32
EASTMAN        FAIR      32  26  81 CALM      30.21R
HAZLEHURST     FAIR      38  31  76 CALM      30.16S
ALMA           CLEAR     38  32  79 N3        30.16S
WAYCROSS       CLEAR     37  33  82 CALM      30.17R
JESUP          FAIR      43  34  70 CALM      30.16S
BAXLEY         FAIR      34  32  93 N5        30.16S WCI  30
BRUNSWICK      CLEAR     43  32  65 CALM      30.16R
SAINT SIMONS   CLEAR     42  36  79 N7        30.14S

$$

SCZ027-028-034-036>038-045-046-048>050-GAZ119-141-201100-
...LAKE AND SUPPLEMENTAL COASTAL OBSERVATIONS...

STATION/POSITION TIME  TEMP    WIND        PRES    WAVE   SWELL
                       AIR SEA DIR/SP/G            HT/PER HT/PER/DIR
                 (UTC) (F)     (DEG/KT/KT) (MB)    (FT/S) (FT/S/D)
WINYAH BAY       NOT AVBL
LAKE MURRAY      0920   39      CALM  /  1 1020.7
ACE BASIN NERRS  0845   41        CALM     1021.0
FORT PULASKI     0942   45 61  340/  5/  6 1021.4R
SAPELO ISLAND    0900   45     360/  7     1021.0

$$

ANZ835-935-AMZ111-154-330-350-352-354-370-450-454-472-201100-
...C-MAN AND BUOY OBSERVATIONS...

STATION/POSITION TIME  TEMP    WIND        PRES    WAVE   SWELL
                       AIR SEA DIR/SP/G            HT/PER HT/PER/DIR
                 (UTC) (F)     (DEG/KT/KT) (MB)    (FT/S) (FT/S/D)
BUOY 41004       0950   58 73   20/ 14/ 19 1020.1R   4/ 6   2/170/10
BUOY 41008       0950   59 67   50/ 16/ 19 1019.8S   4/ 5
FOLLY BEACH CMAN 1000   48      10/ 14/ 16 1022.2R
CAPERS NEARSHORE 0908   49 62   40/ 14/ 19 1020.3R
FRIPP NEARSHORE  0908   50 62   30/ 12/ 21 1019.8F


STATION/POSITION TIME  TEMP    WIND        PRES    WAVE   SWELL
                       AIR SEA DIR/SP/G            HT/PER HT/PER/DIR
                 (UTC) (F)     (DEG/KT/KT) (MB)    (FT/S) (FT/S/D)
5E ST. MARYS GA  1000      67                N/A     4/ 5
FRYING PAN BUOY  0950   53 70   10/ 17/ 23 1020.4R   4/ 5
BUOY 41025       1000   51 66  320/ 19/ 23 1019.8
CAPE LOOKOUT NC  0900          340/ 17/ 20 1020.3R
BUOY 41002       0950   66 76  360/ 17/ 21 1017.0R   7/ 8
BUOY 41010       NOT AVBL
ST AUGUSTINE FL  1000   51 67  330/  8/  9 1019.8R


$$



USA.gov is the U.S. government's official web portal to all federal, state and local government web resources and services.